Weather History for Mammoth, CA

Change the Weather History Date:

Friday, February 8, 2013

  Actual Average Record
Temperature  
Mean Temperature 24 °F -  
Max Temperature 28 °F 34 °F 53 °F (2014)
Min Temperature 19 °F 20 °F 12 °F (2004)
Degree Days  
Heating Degree Days 42    
Moisture  
Dew Point 15 °F    
Average Humidity 73    
Maximum Humidity 93    
Minimum Humidity 37    
Precipitation  
Precipitation 0.00 in - - ()
Sea Level Pressure  
Sea Level Pressure 29.74 in    
Wind  
Wind Speed 8 mph (WNW)    
Max Wind Speed 18 mph    
Max Gust Speed 24 mph    
Visibility 8 miles    
Events Snow    
Averages and records for this station are not official NWS values.
T = Trace of Precipitation, MM = Missing Value Source: NWS Daily Summary

Daily Weather History Graph

Daily Weather History Graph

Search for Another Location

Airport:

Trip Planner

Search our weather history database for the weather conditions in past years. The results will help you decide how hot, cold, wet, or windy it might be!

Date:

Astronomy

Feb. 08, 2013 Rise Set
Actual Time 6:52 AM PST 5:27 PM PST
Civil Twilight 6:25 AM PST 5:54 PM PST
Nautical Twilight 5:54 AM PST 6:25 PM PST
Astronomical Twilight 5:23 AM PST 6:56 PM PST
Moon 5:23 AM PST (2/8) 4:06 PM PST (2/8)
Length of Visible Light 11h 29m
Length of Day
10h 35m
Waning Crescent, 3% of the Moon is Illuminated
Feb 8
Waning Crescent
Feb 9
New
Feb 17
First Quarter
Feb 25
Full
Mar 4
Last Quarter

Hourly Weather History & Observations

Time (PST) Temp. Windchill Dew Point Humidity Pressure Visibility Wind Dir Wind Speed Gust Speed Precip Events Conditions
12:15 AM 24.8 °F - 10.4 °F 54% 29.73 in 10.0 mi Calm Calm - N/A   Clear
12:55 AM 23.0 °F - 10.4 °F 59% 29.73 in 10.0 mi Calm Calm - N/A   Clear
1:15 AM 21.2 °F 14.9 °F 12.2 °F 68% 29.73 in 10.0 mi NNW 4.6 mph - N/A   Scattered Clouds
1:35 AM 23.0 °F - 14.0 °F 68% 29.73 in 10.0 mi Calm Calm - N/A   Mostly Cloudy
1:55 AM 23.0 °F 11.1 °F 17.6 °F 80% 29.73 in 10.0 mi WNW 12.7 mph 21.9 mph N/A   Overcast
2:15 AM 23.0 °F 11.7 °F 17.6 °F 80% 29.74 in 10.0 mi NW 11.5 mph - N/A   Overcast
2:55 AM 23.0 °F 11.1 °F 17.6 °F 80% 29.73 in 5.0 mi NW 12.7 mph - N/A Snow Light Snow
3:15 AM 23.0 °F 8.7 °F 17.6 °F 80% 29.73 in 10.0 mi WNW 18.4 mph 24.2 mph N/A   Overcast
3:35 AM 23.0 °F 9.2 °F 12.2 °F 63% 29.73 in 10.0 mi NW 17.3 mph 24.2 mph N/A   Overcast
3:55 AM 23.0 °F 12.4 °F 12.2 °F 63% 29.72 in 10.0 mi WNW 10.4 mph - N/A   Overcast
4:15 AM 21.2 °F 10.9 °F 17.6 °F 86% 29.71 in 10.0 mi North 9.2 mph - N/A   Overcast
4:35 AM 21.2 °F 12.6 °F 17.6 °F 86% 29.71 in 10.0 mi North 6.9 mph - N/A   Overcast
4:55 AM 19.4 °F 14.3 °F 17.6 °F 93% 29.71 in 10.0 mi West 3.5 mph - N/A   Overcast
5:15 AM 19.4 °F 10.4 °F 14.0 °F 80% 29.70 in 10.0 mi WSW 6.9 mph - N/A   Overcast
5:35 AM 19.4 °F 12.8 °F 15.8 °F 86% 29.71 in 10.0 mi WNW 4.6 mph - N/A   Mostly Cloudy
5:55 AM 19.4 °F 12.8 °F 14.0 °F 80% 29.71 in 10.0 mi WNW 4.6 mph - N/A   Overcast
6:15 AM 21.2 °F 10.9 °F 14.0 °F 74% 29.71 in 10.0 mi NW 9.2 mph - N/A   Overcast
6:35 AM 21.2 °F 9.5 °F 14.0 °F 74% 29.71 in 10.0 mi NW 11.5 mph 17.3 mph N/A   Overcast
6:55 AM 19.4 °F 11.5 °F 12.2 °F 74% 29.71 in 10.0 mi West 5.8 mph - N/A   Overcast
7:15 AM 19.4 °F 10.4 °F 14.0 °F 80% 29.71 in 10.0 mi NW 6.9 mph - N/A   Overcast
7:35 AM 19.4 °F 10.4 °F 14.0 °F 80% 29.71 in 10.0 mi NW 6.9 mph - N/A   Overcast
8:15 AM 21.2 °F 9.5 °F 15.8 °F 80% 29.73 in 10.0 mi NNW 11.5 mph - N/A   Overcast
8:35 AM 21.2 °F 10.1 °F 15.8 °F 80% 29.73 in 10.0 mi NNW 10.4 mph - N/A   Overcast
8:55 AM 21.2 °F 12.6 °F 15.8 °F 80% 29.73 in 3.0 mi WNW 6.9 mph - N/A Snow Light Snow
9:15 AM 21.2 °F 11.7 °F 17.6 °F 86% 29.73 in 7.0 mi West 8.1 mph - N/A Snow Light Snow
9:35 AM 23.0 °F 12.4 °F 14.0 °F 68% 29.73 in 10.0 mi WNW 10.4 mph - N/A   Overcast
9:55 AM 24.8 °F 14.6 °F 14.0 °F 64% 29.73 in 10.0 mi WNW 10.4 mph - N/A   Overcast
10:15 AM 24.8 °F 14.0 °F 14.0 °F 64% 29.74 in 10.0 mi West 11.5 mph - N/A   Overcast
10:35 AM 24.8 °F 14.6 °F 12.2 °F 59% 29.74 in 10.0 mi NW 10.4 mph - N/A   Overcast
10:55 AM 24.8 °F 16.9 °F 12.2 °F 59% 29.74 in 10.0 mi NW 6.9 mph - N/A   Overcast
11:15 AM 28.4 °F 19.7 °F 12.2 °F 51% 29.73 in 10.0 mi West 9.2 mph 18.4 mph N/A   Overcast
11:35 AM 26.6 °F 19.1 °F 10.4 °F 51% 29.73 in 10.0 mi North 6.9 mph - N/A   Overcast
11:55 AM 28.4 °F 19.1 °F 12.2 °F 51% 29.72 in 10.0 mi North 10.4 mph - N/A   Overcast
12:15 PM 26.6 °F 15.7 °F 10.4 °F 51% 29.72 in 5.0 mi North 12.7 mph 16.1 mph N/A Snow Light Snow
12:35 PM 26.6 °F 17.5 °F 10.4 °F 51% 29.71 in 5.0 mi NNW 9.2 mph 18.4 mph N/A Snow Light Snow
12:55 PM 28.4 °F 20.4 °F 5.0 °F 37% 29.70 in 10.0 mi NW 8.1 mph - N/A   Overcast
1:15 PM 28.4 °F 17.5 °F 10.4 °F 47% 29.71 in 10.0 mi NNW 13.8 mph 19.6 mph N/A   Mostly Cloudy
1:35 PM 26.6 °F 16.2 °F 15.8 °F 64% 29.71 in 10.0 mi North 11.5 mph 20.7 mph N/A   Overcast
1:55 PM 26.6 °F 17.5 °F 12.2 °F 55% 29.71 in 10.0 mi NNW 9.2 mph - N/A   Overcast
2:15 PM 26.6 °F 16.2 °F 12.2 °F 55% 29.71 in 10.0 mi WNW 11.5 mph 18.4 mph N/A   Overcast
2:35 PM 24.8 °F 14.0 °F 15.8 °F 69% 29.72 in 4.0 mi WNW 11.5 mph 23.0 mph N/A Snow Light Snow
3:15 PM 24.8 °F 13.4 °F 15.8 °F 69% 29.73 in 10.0 mi West 12.7 mph - N/A   Overcast
3:35 PM 24.8 °F 16.9 °F 15.8 °F 69% 29.73 in 10.0 mi NW 6.9 mph - N/A Snow Light Snow
3:55 PM 23.0 °F 12.4 °F 17.6 °F 80% 29.73 in 5.0 mi West 10.4 mph - N/A   Haze
4:15 PM 23.0 °F 12.4 °F 17.6 °F 80% 29.73 in 10.0 mi WSW 10.4 mph - N/A   Overcast
4:35 PM 23.0 °F 13.1 °F 17.6 °F 80% 29.73 in 10.0 mi West 9.2 mph - N/A   Overcast
4:55 PM 23.0 °F 13.9 °F 15.8 °F 74% 29.74 in 10.0 mi WNW 8.1 mph - N/A   Overcast
5:15 PM 23.0 °F 12.4 °F 17.6 °F 80% 29.74 in 10.0 mi West 10.4 mph - N/A Snow Light Snow
5:35 PM 23.0 °F 13.1 °F 17.6 °F 80% 29.74 in 7.0 mi West 9.2 mph - N/A   Overcast
5:55 PM 21.2 °F 10.1 °F 15.8 °F 80% 29.75 in 3.0 mi WNW 10.4 mph 20.7 mph N/A Snow Light Snow
6:15 PM 21.2 °F 12.6 °F 17.6 °F 86% 29.75 in 1.5 mi West 6.9 mph - N/A Snow Light Snow
6:35 PM 21.2 °F 11.7 °F 17.6 °F 86% 29.76 in 3.0 mi West 8.1 mph - N/A Snow Light Snow
6:55 PM 21.2 °F 11.7 °F 17.6 °F 86% 29.77 in 2.0 mi West 8.1 mph - N/A Snow Light Snow
7:15 PM 21.2 °F 10.1 °F 17.6 °F 86% 29.78 in 0.8 mi WSW 10.4 mph - N/A Snow Snow
7:35 PM 21.2 °F 11.7 °F 17.6 °F 86% 29.78 in 2.0 mi West 8.1 mph - N/A Snow Light Snow
7:55 PM 21.2 °F 9.5 °F 15.8 °F 80% 29.78 in 3.0 mi West 11.5 mph 20.7 mph N/A Snow Light Snow
8:15 PM 21.2 °F 8.3 °F 15.8 °F 80% 29.78 in 3.0 mi West 13.8 mph - N/A Snow Light Snow
8:35 PM 21.2 °F 10.1 °F 17.6 °F 86% 29.78 in 4.0 mi WSW 10.4 mph - N/A Snow Light Snow
8:55 PM 21.2 °F 10.1 °F 15.8 °F 80% 29.78 in 4.0 mi WSW 10.4 mph - N/A Snow Light Snow
9:15 PM 21.2 °F 8.3 °F 15.8 °F 80% 29.79 in 10.0 mi WSW 13.8 mph 20.7 mph N/A Snow Light Snow
9:35 PM 21.2 °F 10.9 °F 15.8 °F 80% 29.79 in 10.0 mi West 9.2 mph - N/A   Overcast
10:15 PM 21.2 °F 10.1 °F 14.0 °F 74% 29.80 in 10.0 mi WSW 10.4 mph 16.1 mph N/A   Overcast
10:35 PM 21.2 °F 8.3 °F 15.8 °F 80% 29.81 in 7.0 mi West 13.8 mph 23.0 mph N/A Snow Light Snow
11:15 PM 21.2 °F 9.5 °F 14.0 °F 74% 29.81 in 10.0 mi West 11.5 mph - N/A   Overcast
11:35 PM 19.4 °F 7.2 °F 14.0 °F 80% 29.81 in 10.0 mi West 11.5 mph - N/A   Overcast
11:55 PM 19.4 °F 7.9 °F 14.0 °F 80% 29.81 in 10.0 mi West 10.4 mph - N/A   Mostly Cloudy